Year,Month,Day,Hour,Minute,Value (Times are PST for temperature in C)
2012,11,30,00,00,11.80
2012,11,30,00,01,11.90
2012,11,30,00,02,11.90
2012,11,30,00,03,11.80
2012,11,30,00,04,11.80
2012,11,30,00,05,11.80
2012,11,30,00,06,11.80
2012,11,30,00,07,11.70
2012,11,30,00,08,11.70
2012,11,30,00,09,11.70
2012,11,30,00,10,11.70
2012,11,30,00,11,11.70
2012,11,30,00,12,11.80
2012,11,30,00,13,11.70
2012,11,30,00,14,11.70
2012,11,30,00,15,11.70
2012,11,30,00,16,11.70
2012,11,30,00,17,11.70
2012,11,30,00,18,11.70
2012,11,30,00,19,11.80
2012,11,30,00,20,11.80
2012,11,30,00,21,11.80
2012,11,30,00,22,11.80
2012,11,30,00,23,11.80
2012,11,30,00,24,11.80
2012,11,30,00,25,11.80
2012,11,30,00,26,11.80
2012,11,30,00,27,11.80
2012,11,30,00,28,11.80
2012,11,30,00,29,11.70
2012,11,30,00,30,11.70
2012,11,30,00,31,11.70
2012,11,30,00,32,11.70
2012,11,30,00,33,11.70
2012,11,30,00,34,11.60
2012,11,30,00,35,11.60
2012,11,30,00,36,11.60
2012,11,30,00,37,11.60
2012,11,30,00,38,11.60
2012,11,30,00,39,11.60
2012,11,30,00,40,11.60
2012,11,30,00,41,11.60
2012,11,30,00,42,11.60
2012,11,30,00,43,11.60
2012,11,30,00,44,11.70
2012,11,30,00,45,11.70
2012,11,30,00,46,11.70
2012,11,30,00,47,11.70
2012,11,30,00,48,11.70
2012,11,30,00,49,11.70
2012,11,30,00,50,11.70
2012,11,30,00,51,11.70
2012,11,30,00,52,11.70
2012,11,30,00,53,11.70
2012,11,30,00,54,11.70
2012,11,30,00,55,11.70
2012,11,30,00,56,11.70
2012,11,30,00,57,11.60
2012,11,30,00,58,11.60
2012,11,30,00,59,11.60
2012,11,30,01,00,11.60
2012,11,30,01,01,11.60
2012,11,30,01,02,11.60
2012,11,30,01,03,11.60
2012,11,30,01,04,11.60
2012,11,30,01,05,11.60
2012,11,30,01,06,11.60
2012,11,30,01,07,11.60
2012,11,30,01,08,11.60
2012,11,30,01,09,11.50
2012,11,30,01,10,11.50
2012,11,30,01,11,11.50
2012,11,30,01,12,11.50
2012,11,30,01,13,11.50
2012,11,30,01,14,11.50
2012,11,30,01,15,11.50
2012,11,30,01,16,11.50
2012,11,30,01,17,11.50
2012,11,30,01,18,11.50
2012,11,30,01,19,11.60
2012,11,30,01,20,11.60
2012,11,30,01,21,11.60
2012,11,30,01,22,11.60
2012,11,30,01,23,11.60
2012,11,30,01,24,11.60
2012,11,30,01,25,11.60
2012,11,30,01,26,11.60
2012,11,30,01,27,11.60
2012,11,30,01,28,11.60
2012,11,30,01,29,11.50
2012,11,30,01,30,11.50
2012,11,30,01,31,11.40
2012,11,30,01,32,11.30
2012,11,30,01,33,11.30
2012,11,30,01,34,11.30
2012,11,30,01,35,11.30
2012,11,30,01,36,11.20
2012,11,30,01,37,11.20
2012,11,30,01,38,11.20
2012,11,30,01,39,11.20
2012,11,30,01,40,11.20
2012,11,30,01,41,11.10
2012,11,30,01,42,11.10
2012,11,30,01,43,11.10
2012,11,30,01,44,11.00
2012,11,30,01,45,11.00
2012,11,30,01,46,11.00
2012,11,30,01,47,10.90
2012,11,30,01,48,10.90
2012,11,30,01,49,10.90
2012,11,30,01,50,10.80
2012,11,30,01,51,10.80
2012,11,30,01,52,10.80
2012,11,30,01,53,10.80
2012,11,30,01,54,10.80
2012,11,30,01,55,10.80
2012,11,30,01,56,10.80
2012,11,30,01,57,10.80
2012,11,30,01,58,10.80
2012,11,30,01,59,10.90
2012,11,30,02,00,11.00
2012,11,30,02,01,11.10
2012,11,30,02,02,11.20
2012,11,30,02,03,11.30
2012,11,30,02,04,11.40
2012,11,30,02,05,11.40
2012,11,30,02,06,11.40
2012,11,30,02,07,11.40
2012,11,30,02,08,11.40
2012,11,30,02,09,11.50
2012,11,30,02,10,11.40
2012,11,30,02,11,11.40
2012,11,30,02,12,11.40
2012,11,30,02,13,11.40
2012,11,30,02,14,11.40
2012,11,30,02,15,11.50
2012,11,30,02,16,11.50
2012,11,30,02,17,11.60
2012,11,30,02,18,11.60
2012,11,30,02,19,11.70
2012,11,30,02,20,11.70
2012,11,30,02,21,11.70
2012,11,30,02,22,11.80
2012,11,30,02,23,11.80
2012,11,30,02,24,11.80
2012,11,30,02,25,11.80
2012,11,30,02,26,11.90
2012,11,30,02,27,11.90
2012,11,30,02,28,12.00
2012,11,30,02,29,12.10
2012,11,30,02,30,12.10
2012,11,30,02,31,12.10
2012,11,30,02,32,12.00
2012,11,30,02,33,12.00
2012,11,30,02,34,12.00
2012,11,30,02,35,12.10
2012,11,30,02,36,12.10
2012,11,30,02,37,12.10
2012,11,30,02,38,12.10
2012,11,30,02,39,12.10
2012,11,30,02,40,12.10
2012,11,30,02,41,12.10
2012,11,30,02,42,12.00
2012,11,30,02,43,12.00
2012,11,30,02,44,12.00
2012,11,30,02,45,12.00
2012,11,30,02,46,12.00
2012,11,30,02,47,12.00
2012,11,30,02,48,12.00
2012,11,30,02,49,12.00
2012,11,30,02,50,12.00
2012,11,30,02,51,11.90
2012,11,30,02,52,11.90
2012,11,30,02,53,11.90
2012,11,30,02,54,11.90
2012,11,30,02,55,11.90
2012,11,30,02,56,11.80
2012,11,30,02,57,11.80
2012,11,30,02,58,11.70
2012,11,30,02,59,11.70
2012,11,30,03,00,11.70
2012,11,30,03,01,11.60
2012,11,30,03,02,11.60
2012,11,30,03,03,11.70
2012,11,30,03,04,11.70
2012,11,30,03,05,11.70
2012,11,30,03,06,11.70
2012,11,30,03,07,11.80
2012,11,30,03,08,11.80
2012,11,30,03,09,11.80
2012,11,30,03,10,11.80
2012,11,30,03,11,11.80
2012,11,30,03,12,11.80
2012,11,30,03,13,11.80
2012,11,30,03,14,11.80
2012,11,30,03,15,11.90
2012,11,30,03,16,11.90
2012,11,30,03,17,11.90
2012,11,30,03,18,11.90
2012,11,30,03,19,11.90
2012,11,30,03,20,11.90
2012,11,30,03,21,11.90
2012,11,30,03,22,11.90
2012,11,30,03,23,11.90
2012,11,30,03,24,11.90
2012,11,30,03,25,11.90
2012,11,30,03,26,11.90
2012,11,30,03,27,11.90
2012,11,30,03,28,11.90
2012,11,30,03,29,11.80
2012,11,30,03,30,11.80
2012,11,30,03,31,11.80
2012,11,30,03,32,11.80
2012,11,30,03,33,11.80
2012,11,30,03,34,11.90
2012,11,30,03,35,11.90
2012,11,30,03,36,11.80
2012,11,30,03,37,11.80
2012,11,30,03,38,11.80
2012,11,30,03,39,11.80
2012,11,30,03,40,11.80
2012,11,30,03,41,11.80
2012,11,30,03,42,11.80
2012,11,30,03,43,11.80
2012,11,30,03,44,11.80
2012,11,30,03,45,11.80
2012,11,30,03,46,11.80
2012,11,30,03,47,11.80
2012,11,30,03,48,11.80
2012,11,30,03,49,11.80
2012,11,30,03,50,11.80
2012,11,30,03,51,11.80
2012,11,30,03,52,11.80
2012,11,30,03,53,11.80
2012,11,30,03,54,11.80
2012,11,30,03,55,11.80
2012,11,30,03,56,11.80
2012,11,30,03,57,11.70
2012,11,30,03,58,11.70
2012,11,30,03,59,11.70
2012,11,30,04,00,11.70
2012,11,30,04,01,11.70
2012,11,30,04,02,11.70
2012,11,30,04,03,11.70
2012,11,30,04,04,11.70
2012,11,30,04,05,11.70
2012,11,30,04,06,11.60
2012,11,30,04,07,11.60
2012,11,30,04,08,11.60
2012,11,30,04,09,11.60
2012,11,30,04,10,11.60
2012,11,30,04,11,11.50
2012,11,30,04,12,11.50
2012,11,30,04,13,11.50
2012,11,30,04,14,11.40
2012,11,30,04,15,11.40
2012,11,30,04,16,11.40
2012,11,30,04,17,11.40
2012,11,30,04,18,11.40
2012,11,30,04,19,11.30
2012,11,30,04,20,11.30
2012,11,30,04,21,11.30
2012,11,30,04,22,11.30
2012,11,30,04,23,11.30
2012,11,30,04,24,11.30
2012,11,30,04,25,11.30
2012,11,30,04,26,11.20
2012,11,30,04,27,11.20
2012,11,30,04,28,11.20
2012,11,30,04,29,11.20
2012,11,30,04,30,11.20
2012,11,30,04,31,11.20
2012,11,30,04,32,11.20
2012,11,30,04,33,11.20
2012,11,30,04,34,11.20
2012,11,30,04,35,11.10
2012,11,30,04,36,11.10
2012,11,30,04,37,11.10
2012,11,30,04,38,11.10
2012,11,30,04,39,11.10
2012,11,30,04,40,11.10
2012,11,30,04,41,11.00
2012,11,30,04,42,11.00
2012,11,30,04,43,11.00
2012,11,30,04,44,10.90
2012,11,30,04,45,10.90
2012,11,30,04,46,10.80
2012,11,30,04,47,10.80
2012,11,30,04,48,10.70
2012,11,30,04,49,10.70
2012,11,30,04,50,10.60
2012,11,30,04,51,10.60
2012,11,30,04,52,10.50
2012,11,30,04,53,10.50
2012,11,30,04,54,10.40
2012,11,30,04,55,10.40
2012,11,30,04,56,10.30
2012,11,30,04,57,10.30
2012,11,30,04,58,10.30
2012,11,30,04,59,10.30
2012,11,30,05,00,10.30
2012,11,30,05,01,10.20
2012,11,30,05,02,10.20
2012,11,30,05,03,10.20
2012,11,30,05,04,10.20
2012,11,30,05,05,10.10
2012,11,30,05,06,10.10
2012,11,30,05,07,10.10
2012,11,30,05,08,10.00
2012,11,30,05,09,10.00
2012,11,30,05,10,10.00
2012,11,30,05,11,9.90
2012,11,30,05,12,9.90
2012,11,30,05,13,9.90
2012,11,30,05,14,9.90
2012,11,30,05,15,9.90
2012,11,30,05,16,10.00
2012,11,30,05,17,10.00
2012,11,30,05,18,10.10
2012,11,30,05,19,10.10
2012,11,30,05,20,10.10
2012,11,30,05,21,10.10
2012,11,30,05,22,10.10
2012,11,30,05,23,10.10
2012,11,30,05,24,10.10
2012,11,30,05,25,10.10
2012,11,30,05,26,10.20
2012,11,30,05,27,10.20
2012,11,30,05,28,10.20
2012,11,30,05,29,10.30
2012,11,30,05,30,10.30
2012,11,30,05,31,10.30
2012,11,30,05,32,10.30
2012,11,30,05,33,10.30
2012,11,30,05,34,10.30
2012,11,30,05,35,10.30
2012,11,30,05,36,10.30
2012,11,30,05,37,10.30
2012,11,30,05,38,10.40
2012,11,30,05,39,10.40
2012,11,30,05,40,10.40
2012,11,30,05,41,10.40
2012,11,30,05,42,10.30
2012,11,30,05,43,10.30
2012,11,30,05,44,10.30
2012,11,30,05,45,10.30
2012,11,30,05,46,10.30
2012,11,30,05,47,10.30
2012,11,30,05,48,10.30
2012,11,30,05,49,10.30
2012,11,30,05,50,10.40
2012,11,30,05,51,10.40
2012,11,30,05,52,10.40
2012,11,30,05,53,10.50
2012,11,30,05,54,10.50
2012,11,30,05,55,10.60
2012,11,30,05,56,10.60
2012,11,30,05,57,10.60
2012,11,30,05,58,10.60
2012,11,30,05,59,10.60
2012,11,30,06,00,10.60
2012,11,30,06,01,10.70
2012,11,30,06,02,10.70
2012,11,30,06,03,10.70
2012,11,30,06,04,10.80
2012,11,30,06,05,10.80
2012,11,30,06,06,10.80
2012,11,30,06,07,10.80
2012,11,30,06,08,10.70
2012,11,30,06,09,10.70
2012,11,30,06,10,10.70
2012,11,30,06,11,10.70
2012,11,30,06,12,10.80
2012,11,30,06,13,10.80
2012,11,30,06,14,10.80
2012,11,30,06,15,10.80
2012,11,30,06,16,10.80
2012,11,30,06,17,10.80
2012,11,30,06,18,10.80
2012,11,30,06,19,10.80
2012,11,30,06,20,10.80
2012,11,30,06,21,10.80
2012,11,30,06,22,10.80
2012,11,30,06,23,10.80
2012,11,30,06,24,10.70
2012,11,30,06,25,10.70
2012,11,30,06,26,10.70
2012,11,30,06,27,10.70
2012,11,30,06,28,10.70
2012,11,30,06,29,10.70
2012,11,30,06,30,10.70
2012,11,30,06,31,10.70
2012,11,30,06,32,10.70
2012,11,30,06,33,10.70
2012,11,30,06,34,10.70
2012,11,30,06,35,10.70
2012,11,30,06,36,10.70
2012,11,30,06,37,10.80
2012,11,30,06,38,10.80
2012,11,30,06,39,10.80
2012,11,30,06,40,10.90
2012,11,30,06,41,10.90
2012,11,30,06,42,11.00
2012,11,30,06,43,11.00
2012,11,30,06,44,11.00
2012,11,30,06,45,11.00
2012,11,30,06,46,11.10
2012,11,30,06,47,11.10
2012,11,30,06,48,11.10
2012,11,30,06,49,11.10
2012,11,30,06,50,11.10
2012,11,30,06,51,11.10
2012,11,30,06,52,11.10
2012,11,30,06,53,11.10
2012,11,30,06,54,11.10
2012,11,30,06,55,11.10
2012,11,30,06,56,11.20
2012,11,30,06,57,11.20
2012,11,30,06,58,11.20
2012,11,30,06,59,11.20
2012,11,30,07,00,11.20
2012,11,30,07,01,11.20
2012,11,30,07,02,11.20
2012,11,30,07,03,11.20
2012,11,30,07,04,11.20
2012,11,30,07,05,11.20
2012,11,30,07,06,11.20
2012,11,30,07,07,11.20
2012,11,30,07,08,11.20
2012,11,30,07,09,11.20
2012,11,30,07,10,11.20
2012,11,30,07,11,11.20
2012,11,30,07,12,11.20
2012,11,30,07,13,11.30
2012,11,30,07,14,11.30
2012,11,30,07,15,11.30
2012,11,30,07,16,11.30
2012,11,30,07,17,11.30
2012,11,30,07,18,11.30
2012,11,30,07,19,11.30
2012,11,30,07,20,11.30
2012,11,30,07,21,11.30
2012,11,30,07,22,11.30
2012,11,30,07,23,11.30
2012,11,30,07,24,11.30
2012,11,30,07,25,11.30
2012,11,30,07,26,11.30
2012,11,30,07,27,11.30
2012,11,30,07,28,11.30
2012,11,30,07,29,11.30
2012,11,30,07,30,11.30
2012,11,30,07,31,11.30
2012,11,30,07,32,11.30
2012,11,30,07,33,11.30
2012,11,30,07,34,11.30
2012,11,30,07,35,11.30
2012,11,30,07,36,11.30
2012,11,30,07,37,11.30
2012,11,30,07,38,11.40
2012,11,30,07,39,11.40
2012,11,30,07,40,11.40
2012,11,30,07,41,11.40
2012,11,30,07,42,11.40
2012,11,30,07,43,11.40
2012,11,30,07,44,11.40
2012,11,30,07,45,11.40
2012,11,30,07,46,11.40
2012,11,30,07,47,11.30
2012,11,30,07,48,11.30
2012,11,30,07,49,11.30
2012,11,30,07,50,11.20
2012,11,30,07,51,11.20
2012,11,30,07,52,11.10
2012,11,30,07,53,11.00
2012,11,30,07,54,10.90
2012,11,30,07,55,10.80
2012,11,30,07,56,10.80
2012,11,30,07,57,10.80
2012,11,30,07,58,10.80
2012,11,30,07,59,10.70
2012,11,30,08,00,10.70
2012,11,30,08,01,10.70
2012,11,30,08,02,10.70
2012,11,30,08,03,10.60
2012,11,30,08,04,10.50
2012,11,30,08,05,10.40
2012,11,30,08,06,10.40
2012,11,30,08,07,10.40
2012,11,30,08,08,10.30
2012,11,30,08,09,10.30
2012,11,30,08,10,10.30
2012,11,30,08,11,10.30
2012,11,30,08,12,10.30
2012,11,30,08,13,10.30
2012,11,30,08,14,10.30
2012,11,30,08,15,10.20
2012,11,30,08,16,10.20
2012,11,30,08,17,10.10
2012,11,30,08,18,10.10
2012,11,30,08,19,10.10
2012,11,30,08,20,10.10
2012,11,30,08,21,10.10
2012,11,30,08,22,10.00
2012,11,30,08,23,10.00
2012,11,30,08,24,10.00
2012,11,30,08,25,10.00
2012,11,30,08,26,9.90
2012,11,30,08,27,9.90
2012,11,30,08,28,9.90
2012,11,30,08,29,9.90
2012,11,30,08,30,9.90
2012,11,30,08,31,9.90
2012,11,30,08,32,9.80
2012,11,30,08,33,9.80
2012,11,30,08,34,9.80
2012,11,30,08,35,9.80
2012,11,30,08,36,9.80
2012,11,30,08,37,9.80
2012,11,30,08,38,9.80
2012,11,30,08,39,9.80
2012,11,30,08,40,9.80
2012,11,30,08,41,9.70
2012,11,30,08,42,9.70
2012,11,30,08,43,9.70
2012,11,30,08,44,9.70
2012,11,30,08,45,9.70
2012,11,30,08,46,9.70
2012,11,30,08,47,9.70
2012,11,30,08,48,9.70
2012,11,30,08,49,9.70
2012,11,30,08,50,9.70
2012,11,30,08,51,9.70
2012,11,30,08,52,9.70
2012,11,30,08,53,9.70
2012,11,30,08,54,9.70
2012,11,30,08,55,9.70
2012,11,30,08,56,9.70
2012,11,30,08,57,9.70
2012,11,30,08,58,9.70
2012,11,30,08,59,9.70
2012,11,30,09,00,9.60
2012,11,30,09,01,9.60
2012,11,30,09,02,9.60
2012,11,30,09,03,9.60
2012,11,30,09,04,9.60
2012,11,30,09,05,9.60
2012,11,30,09,06,9.60
2012,11,30,09,07,9.70
2012,11,30,09,08,9.70
2012,11,30,09,09,9.70
2012,11,30,09,10,9.70
2012,11,30,09,11,9.70
2012,11,30,09,12,9.70
2012,11,30,09,13,9.70
2012,11,30,09,14,9.70
2012,11,30,09,15,9.70
2012,11,30,09,16,9.70
2012,11,30,09,17,9.70
2012,11,30,09,18,9.70
2012,11,30,09,19,9.70
2012,11,30,09,20,9.70
2012,11,30,09,21,9.70
2012,11,30,09,22,9.70
2012,11,30,09,23,9.70
2012,11,30,09,24,9.70
2012,11,30,09,25,9.70
2012,11,30,09,26,9.70
2012,11,30,09,27,9.70
2012,11,30,09,28,9.70
2012,11,30,09,29,9.80
2012,11,30,09,30,9.80
2012,11,30,09,31,9.80
2012,11,30,09,32,9.80
2012,11,30,09,33,9.80
2012,11,30,09,34,9.80
2012,11,30,09,35,9.80
2012,11,30,09,36,9.80
2012,11,30,09,37,9.80
2012,11,30,09,38,9.80
2012,11,30,09,39,9.80
2012,11,30,09,40,9.80
2012,11,30,09,41,9.80
2012,11,30,09,42,9.80
2012,11,30,09,43,9.80
2012,11,30,09,44,9.80
2012,11,30,09,45,9.80
2012,11,30,09,46,9.80
2012,11,30,09,47,9.80
2012,11,30,09,48,9.80
2012,11,30,09,49,9.80
2012,11,30,09,50,9.80
2012,11,30,09,51,9.80
2012,11,30,09,52,9.80
2012,11,30,09,53,9.80
2012,11,30,09,54,9.80
2012,11,30,09,55,9.80
2012,11,30,09,56,9.80
2012,11,30,09,57,9.80
2012,11,30,09,58,9.80
2012,11,30,09,59,9.80
2012,11,30,10,00,9.80
2012,11,30,10,01,9.80
2012,11,30,10,02,9.80
2012,11,30,10,03,9.80
2012,11,30,10,04,9.80
2012,11,30,10,05,9.80
2012,11,30,10,06,9.80
2012,11,30,10,07,9.70
2012,11,30,10,08,9.70
2012,11,30,10,09,9.70
2012,11,30,10,10,9.70
2012,11,30,10,11,9.70
2012,11,30,10,12,9.70
2012,11,30,10,13,9.70
2012,11,30,10,14,9.70
2012,11,30,10,15,9.70
2012,11,30,10,16,9.70
2012,11,30,10,17,9.70
2012,11,30,10,18,9.70
2012,11,30,10,19,9.70
2012,11,30,10,20,9.80
2012,11,30,10,21,9.80
2012,11,30,10,22,9.80
2012,11,30,10,23,9.80
2012,11,30,10,24,9.80
2012,11,30,10,25,9.80
2012,11,30,10,26,9.90
2012,11,30,10,27,9.90
2012,11,30,10,28,9.90
2012,11,30,10,29,9.90
2012,11,30,10,30,9.90
2012,11,30,10,31,9.90
2012,11,30,10,32,9.90
2012,11,30,10,33,9.90
2012,11,30,10,34,9.90
2012,11,30,10,35,9.90
2012,11,30,10,36,9.90
2012,11,30,10,37,9.90
2012,11,30,10,38,9.90
2012,11,30,10,39,9.90
2012,11,30,10,40,9.90
2012,11,30,10,41,9.90
2012,11,30,10,42,9.90
2012,11,30,10,43,9.90
2012,11,30,10,44,9.90
2012,11,30,10,45,9.90
2012,11,30,10,46,9.90
2012,11,30,10,47,9.90
2012,11,30,10,48,9.90
2012,11,30,10,49,9.90
2012,11,30,10,50,9.90
2012,11,30,10,51,9.90
2012,11,30,10,52,9.90
2012,11,30,10,53,9.90
2012,11,30,10,54,9.90
2012,11,30,10,55,9.90
2012,11,30,10,56,9.90
2012,11,30,10,57,9.90
2012,11,30,10,58,9.90
2012,11,30,10,59,9.90
2012,11,30,11,00,9.90
2012,11,30,11,01,9.80
2012,11,30,11,02,9.80
2012,11,30,11,03,9.80
2012,11,30,11,04,9.80
2012,11,30,11,05,9.80
2012,11,30,11,06,9.80
2012,11,30,11,07,9.80
2012,11,30,11,08,9.80
2012,11,30,11,09,9.80
2012,11,30,11,10,9.80
2012,11,30,11,11,9.80
2012,11,30,11,12,9.80
2012,11,30,11,13,9.80
2012,11,30,11,14,9.80
2012,11,30,11,15,9.90
2012,11,30,11,16,9.90
2012,11,30,11,17,9.90
2012,11,30,11,18,9.90
2012,11,30,11,19,9.80
2012,11,30,11,20,9.80
2012,11,30,11,21,9.80
2012,11,30,11,22,9.80
2012,11,30,11,23,9.80
2012,11,30,11,24,9.80
2012,11,30,11,25,9.80
2012,11,30,11,26,9.80
2012,11,30,11,27,9.80
2012,11,30,11,28,9.80
2012,11,30,11,29,9.80
2012,11,30,11,30,9.80
2012,11,30,11,31,9.80
2012,11,30,11,32,9.80
2012,11,30,11,33,9.80
2012,11,30,11,34,9.80
2012,11,30,11,35,9.80
2012,11,30,11,36,9.80
2012,11,30,11,37,9.80
2012,11,30,11,38,9.80
2012,11,30,11,39,9.80
2012,11,30,11,40,9.80
2012,11,30,11,41,9.80
2012,11,30,11,42,9.80
2012,11,30,11,43,9.90
2012,11,30,11,44,9.90
2012,11,30,11,45,9.90
2012,11,30,11,46,9.90
2012,11,30,11,47,9.90
2012,11,30,11,48,9.90
2012,11,30,11,49,9.90
2012,11,30,11,50,9.90
2012,11,30,11,51,10.00
2012,11,30,11,52,10.00
2012,11,30,11,53,10.00
2012,11,30,11,54,10.00
2012,11,30,11,55,10.00
2012,11,30,11,56,10.10
2012,11,30,11,57,10.10
2012,11,30,11,58,10.10
2012,11,30,11,59,10.10
2012,11,30,12,00,10.10
2012,11,30,12,01,10.10
2012,11,30,12,02,10.10
2012,11,30,12,03,10.10
2012,11,30,12,04,10.10
2012,11,30,12,05,10.10
2012,11,30,12,06,10.10
2012,11,30,12,07,10.10
2012,11,30,12,08,10.10
2012,11,30,12,09,10.10
2012,11,30,12,10,10.10
2012,11,30,12,11,10.10
2012,11,30,12,12,10.10
2012,11,30,12,13,10.10
2012,11,30,12,14,10.10
2012,11,30,12,15,10.10
2012,11,30,12,16,10.10
2012,11,30,12,17,10.10
2012,11,30,12,18,10.10
2012,11,30,12,19,10.10
2012,11,30,12,20,10.10
2012,11,30,12,21,10.10
2012,11,30,12,22,10.10
2012,11,30,12,23,10.20
2012,11,30,12,24,10.20
2012,11,30,12,25,10.20
2012,11,30,12,26,10.20
2012,11,30,12,27,10.20
2012,11,30,12,28,10.20
2012,11,30,12,29,10.20
2012,11,30,12,30,10.20
2012,11,30,12,31,10.20
2012,11,30,12,32,10.20
2012,11,30,12,33,10.20
2012,11,30,12,34,10.20
2012,11,30,12,35,10.20
2012,11,30,12,36,10.20
2012,11,30,12,37,10.20
2012,11,30,12,38,10.10
2012,11,30,12,39,10.10
2012,11,30,12,40,10.10
2012,11,30,12,41,10.10
2012,11,30,12,42,10.10
2012,11,30,12,43,10.10
2012,11,30,12,44,10.10
2012,11,30,12,45,10.10
2012,11,30,12,46,10.10
2012,11,30,12,47,10.10
2012,11,30,12,48,10.10
2012,11,30,12,49,10.10
2012,11,30,12,50,10.10
2012,11,30,12,51,10.10
2012,11,30,12,52,10.10
2012,11,30,12,53,10.10
2012,11,30,12,54,10.10
2012,11,30,12,55,10.10
2012,11,30,12,56,10.10
2012,11,30,12,57,10.10
2012,11,30,12,58,10.10
2012,11,30,12,59,10.10
2012,11,30,13,00,10.10
2012,11,30,13,01,10.10
2012,11,30,13,02,10.10
2012,11,30,13,03,10.10
2012,11,30,13,04,10.10
2012,11,30,13,05,10.10
2012,11,30,13,06,10.20
2012,11,30,13,07,10.20
2012,11,30,13,08,10.20
2012,11,30,13,09,10.20
2012,11,30,13,10,10.20
2012,11,30,13,11,10.20
2012,11,30,13,12,10.20
2012,11,30,13,13,10.20
2012,11,30,13,14,10.20
2012,11,30,13,15,10.20
2012,11,30,13,16,10.20
2012,11,30,13,17,10.20
2012,11,30,13,18,10.20
2012,11,30,13,19,10.30
2012,11,30,13,20,10.30
2012,11,30,13,21,10.30
2012,11,30,13,22,10.30
2012,11,30,13,23,10.30
2012,11,30,13,24,10.30
2012,11,30,13,25,10.30
2012,11,30,13,26,10.30
2012,11,30,13,27,10.30
2012,11,30,13,28,10.20
2012,11,30,13,29,10.20
2012,11,30,13,30,10.20
2012,11,30,13,31,10.20
2012,11,30,13,32,10.20
2012,11,30,13,33,10.20
2012,11,30,13,34,10.20
2012,11,30,13,35,10.20
2012,11,30,13,36,10.20
2012,11,30,13,37,10.20
2012,11,30,13,38,10.10
2012,11,30,13,39,10.10
2012,11,30,13,40,10.10
2012,11,30,13,41,10.10
2012,11,30,13,42,10.10
2012,11,30,13,43,10.10
2012,11,30,13,44,10.10
2012,11,30,13,45,10.10
2012,11,30,13,46,10.10
2012,11,30,13,47,10.10
2012,11,30,13,48,10.10
2012,11,30,13,49,10.10
2012,11,30,13,50,10.10
2012,11,30,13,51,10.10
2012,11,30,13,52,10.10
2012,11,30,13,53,10.10
2012,11,30,13,54,10.10
2012,11,30,13,55,10.10
2012,11,30,13,56,10.10
2012,11,30,13,57,10.20
2012,11,30,13,58,10.20
2012,11,30,13,59,10.20
2012,11,30,14,00,10.20
2012,11,30,14,01,10.20
2012,11,30,14,02,10.20
2012,11,30,14,03,10.20
2012,11,30,14,04,10.20
2012,11,30,14,05,10.10
2012,11,30,14,06,10.10
2012,11,30,14,07,10.10
2012,11,30,14,08,10.10
2012,11,30,14,09,10.10
2012,11,30,14,10,10.10
2012,11,30,14,11,10.10
2012,11,30,14,12,10.10
2012,11,30,14,13,10.10
2012,11,30,14,14,10.10
2012,11,30,14,15,10.10
2012,11,30,14,16,10.10
2012,11,30,14,17,10.10
2012,11,30,14,18,10.10
2012,11,30,14,19,10.10
2012,11,30,14,20,10.10
2012,11,30,14,21,10.10
2012,11,30,14,22,10.10
2012,11,30,14,23,10.10
2012,11,30,14,24,10.20
2012,11,30,14,25,10.20
2012,11,30,14,26,10.20
2012,11,30,14,27,10.20
2012,11,30,14,28,10.20
2012,11,30,14,29,10.20
2012,11,30,14,30,10.20
2012,11,30,14,31,10.20
2012,11,30,14,32,10.20
2012,11,30,14,33,10.20
2012,11,30,14,34,10.20
2012,11,30,14,35,10.20
2012,11,30,14,36,10.20
2012,11,30,14,37,10.20
2012,11,30,14,38,10.20
2012,11,30,14,39,10.20
2012,11,30,14,40,10.20
2012,11,30,14,41,10.20
2012,11,30,14,42,10.20
2012,11,30,14,43,10.20
2012,11,30,14,44,10.20
2012,11,30,14,45,10.20
2012,11,30,14,46,10.20
2012,11,30,14,47,10.20
2012,11,30,14,48,10.20
2012,11,30,14,49,10.20
2012,11,30,14,50,10.20
2012,11,30,14,51,10.20
2012,11,30,14,52,10.20
2012,11,30,14,53,10.20
2012,11,30,14,54,10.30
2012,11,30,14,55,10.30
2012,11,30,14,56,10.30
2012,11,30,14,57,10.30
2012,11,30,14,58,10.30
2012,11,30,14,59,10.30
2012,11,30,15,00,10.30
2012,11,30,15,01,10.30
2012,11,30,15,02,10.30
2012,11,30,15,03,10.30
2012,11,30,15,04,10.30
2012,11,30,15,05,10.30
2012,11,30,15,06,10.30
2012,11,30,15,07,10.30
2012,11,30,15,08,10.30
2012,11,30,15,09,10.30
2012,11,30,15,10,10.30
2012,11,30,15,11,10.30
2012,11,30,15,12,10.30
2012,11,30,15,13,10.30
2012,11,30,15,14,10.30
2012,11,30,15,15,10.30
2012,11,30,15,16,10.30
2012,11,30,15,17,10.30
2012,11,30,15,18,10.40
2012,11,30,15,19,10.40
2012,11,30,15,20,10.40
2012,11,30,15,21,10.40
2012,11,30,15,22,10.40
2012,11,30,15,23,10.40
2012,11,30,15,24,10.40
2012,11,30,15,25,10.40
2012,11,30,15,26,10.40
2012,11,30,15,27,10.40
2012,11,30,15,28,10.40
2012,11,30,15,29,10.40
2012,11,30,15,30,10.30
2012,11,30,15,31,10.30
2012,11,30,15,32,10.30
2012,11,30,15,33,10.30
2012,11,30,15,34,10.40
2012,11,30,15,35,10.40
2012,11,30,15,36,10.40
2012,11,30,15,37,10.40
2012,11,30,15,38,10.40
2012,11,30,15,39,10.40
2012,11,30,15,40,10.40
2012,11,30,15,41,10.40
2012,11,30,15,42,10.40
2012,11,30,15,43,10.40
2012,11,30,15,44,10.40
2012,11,30,15,45,10.40
2012,11,30,15,46,10.40
2012,11,30,15,47,10.40
2012,11,30,15,48,10.40
2012,11,30,15,49,10.40
2012,11,30,15,50,10.40
2012,11,30,15,51,10.40
2012,11,30,15,52,10.40
2012,11,30,15,53,10.40
2012,11,30,15,54,10.40
2012,11,30,15,55,10.40
2012,11,30,15,56,10.40
2012,11,30,15,57,10.40
2012,11,30,15,58,10.40
2012,11,30,15,59,10.40
2012,11,30,16,00,10.40
2012,11,30,16,01,10.40
2012,11,30,16,02,10.40
2012,11,30,16,03,10.40
2012,11,30,16,04,10.40
2012,11,30,16,05,10.40
2012,11,30,16,06,10.40
2012,11,30,16,07,10.40
2012,11,30,16,08,10.40
2012,11,30,16,09,10.40
2012,11,30,16,10,10.40
2012,11,30,16,11,10.40
2012,11,30,16,12,10.40
2012,11,30,16,13,10.40
2012,11,30,16,14,10.40
2012,11,30,16,15,10.30
2012,11,30,16,16,10.40
2012,11,30,16,17,10.30
2012,11,30,16,18,10.30
2012,11,30,16,19,10.30
2012,11,30,16,20,10.30
2012,11,30,16,21,10.30
2012,11,30,16,22,10.30
2012,11,30,16,23,10.40
2012,11,30,16,24,10.40
2012,11,30,16,25,10.40
2012,11,30,16,26,10.40
2012,11,30,16,27,10.30
2012,11,30,16,28,10.40
2012,11,30,16,29,10.40
2012,11,30,16,30,10.40
2012,11,30,16,31,10.40
2012,11,30,16,32,10.40
2012,11,30,16,33,10.40
2012,11,30,16,34,10.40
2012,11,30,16,35,10.40
2012,11,30,16,36,10.40
2012,11,30,19,32,9.70
2012,11,30,19,33,9.70
2012,11,30,19,34,9.70
2012,11,30,19,35,9.70
2012,11,30,19,36,9.70
2012,11,30,19,37,9.60
2012,11,30,19,38,9.60
2012,11,30,19,39,9.60
2012,11,30,19,40,9.60
2012,11,30,19,41,9.60
2012,11,30,19,42,9.60
2012,11,30,19,43,9.60
2012,11,30,19,44,9.60
2012,11,30,19,45,9.60
2012,11,30,19,46,9.60
2012,11,30,19,47,9.60
2012,11,30,19,48,9.60
2012,11,30,19,49,9.60
2012,11,30,19,50,9.60
2012,11,30,19,51,9.60
2012,11,30,19,52,9.60
2012,11,30,19,53,9.60
2012,11,30,19,54,9.60
2012,11,30,19,55,9.60
2012,11,30,19,56,9.60
2012,11,30,19,57,9.60
2012,11,30,19,58,9.60
2012,11,30,19,59,9.60
2012,11,30,20,00,9.60
2012,11,30,20,01,9.60
2012,11,30,20,02,9.60
2012,11,30,20,03,9.60
2012,11,30,20,04,9.60
2012,11,30,20,05,9.60
2012,11,30,20,06,9.60
2012,11,30,20,07,9.60
2012,11,30,20,08,9.60
2012,11,30,20,09,9.60
2012,11,30,20,10,9.60
2012,11,30,20,11,9.60
2012,11,30,20,12,9.60
2012,11,30,20,13,9.60
2012,11,30,20,14,9.60
2012,11,30,20,15,9.60
2012,11,30,20,16,9.60
2012,11,30,20,17,9.60
2012,11,30,20,18,9.60
2012,11,30,20,19,9.60
2012,11,30,20,20,9.60
2012,11,30,20,21,9.60
2012,11,30,20,22,9.60
2012,11,30,20,23,9.60
2012,11,30,20,24,9.60
2012,11,30,20,25,9.60